STARLINK-30266 (57529 NORAD) Tracking and Keplerian Element Data

This shows tracking and keplerian element data for the satellite.

Feedback or suggestion? Click here.




ElementValue
Catalog57529
NameSTARLINK-30266
Epoch Orbit2505
Epoch Day13.22831458
Epoch Year2024
RAAN317.8474
Inclination43.0027
Eccentricity8.86E-05
Argument of Perigee248.5846
Mean Anonmoly111.4902
Mean Motion15.02555932
Decay Rate0.00015471
L11 57529U 23115J 24013.22831458 .00015471 00000+0 11572-2 0 9998
L22 57529 43.0027 317.8474 0000886 248.5846 111.4902 15.02555932 25056



Live tracking and technical data element details for STARLINK-30266 (NORAD 57529). STARLINK-30266 can be tracked NOW for your location showing map with azimuth and elevation plus other details from your city location.







IsCatalogInMostPopularTable: catalog: 57529, numindb: 24
Update: records affected: 1



GetName: 57529 STARLINK-30266

Hit Count: updated at: Thu, 22 Feb 2024 00:22:13 GMT